Tracking 31027 objects as of 19-Jul-2025
HD Live streaming from Space Station
objects crossing your sky now

STARLINK-11581

Track STARLINK-11581 now!
10-day predictions
STARLINK-11581 is classified as:


NORAD ID: 63144
Int'l Code: 2025-043N
Perigee: 363.3 km
Apogee: 363.8 km
Inclination: 43.0 °
Period: 91.7 minutes
Semi major axis: 6734 km
RCS: Unknown
Launch date: March 2, 2024
Source: United States (US)
Launch site: AIR FORCE EASTERN TEST RANGE (AFETR)
Your satellite tracking list
COSMOS 2452
Track 1 satellite(s)




NASA's NSSDC Master Catalog

Two Line Element Set (TLE):
1 63144U 25043N   25199.77929760  .00157142  00000-0  12037-2 0  9990
2 63144  42.9982 220.6905 0000406 330.2670  29.8175 15.70868005 22689
Source of the keplerian elements: AFSPC